SCP
0 0 0 0 0 0 0 0 0 0 0 0 0 -0 0 0 -0 -0 0 0 0 0 0 0 0 0 0 0 0 0 0 0 0 0 0 0 0 0 0 0 0 0 0 0
0 0 0 0 0 0 0 0 0 -0 -0 -0 0 0 0 -0 -0 -0 0 0 0 0 0 0 0 0 0 0 0 0 0 0 0 0 0 0 0 0 0 0 0 0 0 0
0 0 0 0 0 0 0 0 0 0 -0 -0 0 0 0 0 0 -0 0 0 0 0 0 0 0 0 0 0 0 0 0 0 0 0 0 0 0 0 0 0 0 -0 -0 -0
0 0 0 0 0 0 0 0 0 0 0 0 0 0 0 0 0 0 -0 0 0 0 0 0 0 0 0 0 0 0 0 0 0 0 0 0 0 0 0 0 0 0 0 -0
0 0 0 0 0 0 0 0 0 0 -0 0 0 0 0 0 0 -0 -0 0 0 0 0 0 0 0 0 0 0 0 0 0 0 0 0 0 0 0 0 0 0 0 0 0
0 0 0 0 0 0 0 0 0 0 -0 0 0 0 0 0 -0 0 -0 0 0 0 0 0 0 0 0 0 0 0 0 0 0 0 0 0 0 0 0 0 0 0 0 0
0 0 0 0 0 0 0 0 0 0 0 0 0 0 -0 -0 -0 0 0 0 0 0 0 0 0 0 0 0 0 0 0 0 0 0 0 0 0 0 0 0 0 0 0 0
0 0 0 0 0 0 0 0 0 0 0 0 0 -0 0 -0 -0 0 0 0 0 0 0 0 0 0 0 0 0 0 0 0 0 0 0 0 0 0 0 0 0 0 0 0
0 0 0 0 0 0 0 0 0 0 0 0 0 0 0 0 0 0 0 0 0 0 0 0 0 0 0 0 0 0 0 0 0 0 0 0 0 0 0 0 0 0 0 0
0 0 0 0 0 0 0 0 0 0 0 0 0 0 0 0 0 0 0 0 0 0 0 0 0 0 0 0 0 0 0 0 0 0 0 0 0 0 0 0 0 0 0 0
0 0 0 0 0 -0 0 0 0 0 0 0 -0 0 0 0 0 0 0 0 0 0 0 0 0 0 0 0 0 0 0 0 0 0 0 0 0 0 0 0 0 0 0 0
0 0 0 0 0 0 0 0 0 0 0 0 0 0 0 -0 0 0 0 0 0 0 0 0 0 0 0 0 0 0 0 0 0 0 0 0 0 0 0 0 0 0 0 0
0 0 0 0 0 0 0 0 0 0 -0 0 0 -0 0 -0 0 0 0 0 0 0 0 0 0 0 0 0 0 0 0 0 0 0 0 0 0 0 0 0 0 0 0 0
0 0 0 -0 0 -0 -0 0 0 0 -0 0 0 0 0 0 0 0 0 0 0 0 0 0 0 0 0 0 0 0 0 0 0 0 0 0 0 0 0 0 0 0 0 0
-0 -0 -0 -0 -0 -0 0 0 0 0 -0 0 0 0 0 0 0 0 0 0 0 0 0 0 0 0 0 0 0 0 0 0 0 0 -0 0 0 0 0 0 0 0 0 0
-0 -0 -0 -0 -0 -0 0 0 0 -0 -0 0 0 0 0 0 -0 0 0 0 0 0 0 0 0 0 0 0 0 0 0 0 0 0 0 0 0 0 0 0 0 0 0 0
-0 -0 -0 -0 -0 0 0 0 0 -0 -0 -0 0 0 0 0 0 0 0 0 0 0 0 0 0 0 0 0 0 0 0 0 0 -0 -0 0 0 0 0 0 0 0 0 0
-0 -0 -0 -0 -0 0 0 0 0 0 0 -0 0 0 0 0 0 0 0 0 0 0 0 0 0 0 0 0 0 0 0 0 0 0 0 0 0 0 0 0 0 0 0 0
-0 -0 0 0 0 0 0 -0 0 0 0 0 0 0 0 0 0 0 0 0 0 0 0 0 0 0 0 0 -0 0 0 0 0 0 0 0 0 0 0 0 0 0 0 0
-0 0 0 0 0 -0 -0 0 0 0 0 0 0 0 0 0 0 0 0 0 0 0 0 0 0 0 0 0 0 0 0 -0 -0 -0 0 0 0 0 0 0 0 0 0 0
0 0 0 0 -0 -0 0 -0 0 0 0 0 0 0 0 0 0 0 0 0 0 0 0 0 0 0 0 0 0 0 0 -0 0 0 0 0 0 0 0 0 0 0 0 0
0 0 0 0 -0 0 -0 -0 0 0 0 0 0 0 0 0 0 0 0 0 0 0 0 0 0 0 0 0 0 0 0 0 0 0 0 0 0 0 0 0 0 0 0 0
0 0 0 0 0 0 0 -0 -0 0 0 0 0 0 0 0 0 0 0 0 0 0 0 0 0 0 0 0 0 0 0 0 0 0 0 0 0 0 0 0 0 0 0 0
0 0 0 0 0 0 0 0 0 0 0 0 0 0 0 0 0 0 0 0 0 0 0 0 0 0 0 0 0 0 0 0 0 0 0 0 0 0 0 0 0 0 0 0
0 0 0 0 0 0 0 0 0 0 0 0 0 0 0 0 0 0 0 0 0 0 0 0 0 0 0 0 0 0 0 0 0 0 0 0 0 0 0 0 0 0 0 0
0 0 0 0 -0 0 0 0 0 0 0 0 0 0 0 0 0 0 0 0 0 0 0 0 0 0 0 0 0 0 0 0 0 0 0 0 0 0 0 0 0 0 0 -0
0 0 0 -0 0 0 0 0 0 0 0 0 0 0 0 0 0 0 0 0 0 0 0 0 0 -0 -0 0 0 0 0 0 0 0 0 0 0 0 0 0 -0 0 0 0
Wind_Speed_500mb
66 69 74 80 83 82 73 32 8 38 40 7 7 5 18 23 15 9 11 6 4 3 3 2 11 18 24 35 14 18 14 8 6 9 5 12 15 18 15 10 8 5 8 10
63 65 68 75 80 72 69 25 11 25 48 7 8 15 16 11 18 15 5 6 7 4 6 3 3 13 23 19 22 17 13 4 3 11 11 8 7 4 10 12 8 9 11 10
59 58 61 68 75 68 43 17 9 17 16 17 14 16 11 14 19 11 6 8 7 4 2 3 6 8 3 31 20 37 21 6 12 12 9 6 6 9 5 14 9 11 10 5
55 54 55 61 71 68 40 22 7 13 9 13 22 18 8 21 15 13 4 7 14 6 2 3 5 4 11 9 11 9 14 10 5 9 8 10 7 7 5 8 12 12 15 15
52 50 50 52 63 68 40 15 13 17 18 30 22 15 8 22 16 10 9 8 7 17 6 2 7 4 11 8 13 7 5 7 7 5 3 6 12 13 12 9 9 12 15 4
51 47 47 45 50 58 24 34 23 11 16 15 12 11 19 27 31 19 22 22 17 7 17 7 12 13 9 7 2 2 7 13 7 3 5 6 9 6 6 11 11 9 11 11
50 49 42 41 40 43 42 34 18 10 8 14 10 22 39 32 32 17 24 20 4 14 8 18 7 4 4 9 5 15 11 10 7 6 6 2 7 22 36 27 16 11 25 18
44 45 43 39 35 36 40 18 11 8 8 25 24 35 33 47 39 15 11 9 11 13 4 4 7 9 9 7 10 5 8 11 8 9 6 6 6 8 12 10 11 15 29 32
43 42 41 38 33 34 36 11 20 13 14 6 34 25 22 13 19 17 13 20 24 9 4 4 7 6 7 6 6 11 8 12 10 5 10 9 8 1 44 15 6 7 29 36
42 43 40 33 32 29 36 19 13 15 12 24 24 13 12 18 9 7 16 21 12 14 4 4 5 5 4 9 8 9 5 9 11 7 7 5 7 4 2 7 15 26 35 26
42 39 36 34 33 30 36 30 8 15 11 45 17 30 44 33 11 6 19 13 3 3 4 3 4 4 6 4 2 8 8 10 4 7 8 3 5 3 6 21 38 55 51 58
40 37 34 32 34 32 31 32 19 17 26 45 45 16 18 29 19 20 15 6 8 7 4 5 3 4 6 10 7 3 6 8 11 5 3 9 5 36 59 61 66 52 69 59
38 37 36 35 32 30 29 32 17 24 17 40 14 14 31 24 12 24 9 9 21 18 13 6 5 6 6 7 7 8 6 4 10 9 12 26 48 65 76 71 69 60 55 50
39 42 39 35 33 29 22 19 11 19 14 8 17 32 21 16 21 34 36 45 43 41 20 9 2 4 2 2 6 8 3 9 15 19 18 48 37 62 72 67 62 56 46 38
42 41 36 33 27 17 9 6 6 12 8 8 26 30 12 20 32 35 43 51 43 14 6 1 5 4 9 4 5 5 5 20 11 10 41 35 36 62 65 65 57 48 45 42
42 39 32 27 20 12 7 8 15 15 18 8 7 18 18 28 30 27 38 30 19 7 3 4 8 7 10 7 6 15 8 13 48 28 41 65 65 58 50 53 48 41 36 28
38 27 22 17 16 10 11 7 11 17 14 6 9 13 12 28 20 10 19 13 16 17 10 11 5 16 12 6 6 15 33 48 67 77 88 54 57 53 48 45 42 35 32 26
27 20 16 13 13 11 6 4 12 10 6 8 5 7 18 21 12 12 20 19 16 21 13 9 8 11 9 8 10 37 57 69 63 46 49 63 61 54 49 39 33 28 26 22
19 19 15 9 6 8 8 20 15 7 7 5 4 3 6 20 10 11 12 11 7 13 7 7 7 7 6 19 39 46 60 43 56 64 64 61 57 52 44 33 25 23 25 18
17 14 6 4 6 22 13 3 3 3 5 7 6 6 6 13 8 6 8 8 3 5 5 9 7 3 6 40 57 65 44 63 68 67 49 57 54 48 38 22 18 19 20 18
5 3 5 8 11 7 4 5 4 6 5 10 9 9 4 7 4 4 8 2 3 5 8 6 5 4 3 35 53 48 66 64 51 31 44 41 40 44 36 29 21 19 16 14
11 9 10 5 4 3 1 5 6 3 4 7 3 3 4 6 7 5 7 3 4 1 3 7 2 3 20 45 52 59 60 56 41 39 50 45 40 36 30 25 22 19 16 15
1 3 4 4 5 6 6 7 3 4 9 12 15 5 5 3 3 2 3 3 5 1 6 3 7 14 37 53 55 52 50 50 48 48 45 42 40 34 24 27 22 21 17 17
6 5 7 7 6 7 6 5 6 5 7 18 17 7 3 5 6 1 2 1 4 3 1 8 6 39 56 60 58 56 57 57 53 48 44 42 39 34 26 20 18 16 17 17
6 6 7 9 8 4 3 4 4 4 13 15 8 6 2 3 2 1 1 2 5 9 8 6 33 57 67 65 63 61 60 53 49 45 41 36 31 28 25 17 16 16 19 19
9 11 6 11 3 3 3 10 11 6 10 6 3 2 2 5 5 3 9 7 9 7 6 13 59 62 69 72 64 60 55 46 41 37 30 27 24 22 22 22 20 21 20 20
7 9 20 26 20 15 15 12 11 11 9 5 4 3 9 2 3 5 7 8 6 9 11 50 69 67 65 64 62 58 53 45 42 36 30 26 23 24 25 27 26 22 18 14
Wind_Direction_500mb
356 357 357 357 3 351 359 4 26 17 347 46 30 318 309 306 328 336 250 226 292 291 307 107 170 193 211 185 128 156 189 152 225 195 203 189 165 172 151 128 199 140 159 259
356 357 359 360 5 1 351 351 328 20 26 20 358 332 319 298 15 327 348 318 287 3 348 70 43 210 221 179 160 153 175 242 345 355 359 10 64 141 119 119 95 179 136 249
356 357 1 1 6 8 1 6 352 357 17 348 338 342 327 324 299 268 211 272 275 296 280 103 352 329 336 197 182 179 132 129 157 185 200 153 17 23 158 122 113 166 200 178
356 357 2 5 5 12 17 22 8 4 317 335 329 323 286 333 350 347 242 283 240 219 257 145 204 331 334 74 114 91 131 157 108 69 121 123 109 70 301 126 147 157 197 187
356 357 2 8 6 9 27 24 355 334 307 298 334 342 332 326 332 299 297 213 294 252 251 8 166 359 16 47 340 93 359 132 107 67 137 130 95 21 61 56 144 83 84 92
354 354 0 6 9 11 9 3 340 316 310 318 342 336 326 312 317 297 260 279 272 220 231 246 130 102 163 195 87 44 108 129 106 117 292 133 59 151 48 54 22 122 152 203
352 353 353 1 6 9 2 351 333 333 307 323 315 303 327 316 316 290 281 291 313 0 142 125 50 19 281 274 261 190 138 102 91 132 35 104 231 118 104 93 29 6 100 115
350 351 351 353 358 3 1 354 355 315 292 303 298 329 324 325 337 337 318 325 345 314 174 119 79 349 19 322 37 123 230 110 90 125 121 300 54 186 135 136 16 10 116 111
346 346 347 347 353 356 356 0 348 322 301 246 315 324 302 326 346 340 314 330 9 27 107 179 130 158 132 266 6 40 84 77 108 128 111 179 250 10 125 101 61 37 124 127
341 342 342 345 346 352 339 346 320 322 277 291 313 290 302 315 313 286 285 330 340 27 43 89 124 160 182 161 192 183 50 44 120 100 112 292 179 350 350 112 195 152 141 130
338 338 339 339 338 343 334 339 329 331 270 292 289 303 300 303 270 299 293 312 346 291 87 115 164 152 157 94 236 191 140 116 112 78 102 166 134 50 181 141 119 131 128 126
339 338 338 334 335 336 330 327 343 303 271 279 303 310 329 326 303 311 300 299 294 310 343 194 251 169 134 146 184 300 100 170 134 95 211 328 89 121 121 130 126 124 130 131
334 334 330 329 331 329 319 313 328 345 296 314 306 309 334 324 328 330 300 326 344 306 306 284 258 116 137 145 221 136 86 107 96 88 0 73 93 109 124 132 129 133 131 133
329 328 324 326 328 321 311 309 315 334 314 284 290 326 353 340 331 322 301 296 306 305 277 239 241 102 76 99 139 100 45 62 113 90 101 85 85 117 126 125 128 127 122 120
326 327 321 326 328 325 314 256 163 14 326 279 291 332 344 3 342 325 328 312 296 284 277 284 118 60 45 30 87 49 346 150 132 177 168 127 142 136 135 131 130 127 124 117
321 322 316 322 317 320 231 251 258 314 326 292 299 319 317 348 351 335 346 350 337 310 352 331 63 78 148 74 63 336 92 165 141 134 140 134 140 141 137 125 124 121 112 102
319 316 312 316 312 285 254 256 297 307 304 283 293 311 314 344 346 329 348 339 341 347 14 33 32 26 49 59 57 4 102 122 129 135 130 118 136 129 130 126 124 118 107 100
315 309 298 290 291 290 265 291 310 336 308 275 296 290 320 356 340 333 353 346 356 19 357 21 28 20 40 71 78 105 111 114 119 132 139 135 135 134 130 129 131 119 108 100
303 311 291 283 272 264 283 305 298 266 245 293 256 277 289 345 353 334 338 351 29 350 34 11 22 340 42 145 139 136 134 132 127 127 129 138 138 138 137 139 139 125 117 103
303 303 266 225 239 291 288 272 249 228 225 230 253 248 276 332 346 332 350 9 45 37 306 346 60 344 46 154 153 144 145 142 142 133 132 142 142 143 145 144 132 125 121 106
329 290 249 286 285 279 251 252 214 202 251 213 238 226 271 344 350 302 27 218 4 52 291 89 1 360 1 157 152 158 158 159 160 155 158 159 156 154 151 146 137 126 116 97
329 308 313 334 275 257 356 267 304 251 265 318 269 329 309 323 325 11 348 35 30 10 314 70 39 239 142 158 154 159 163 165 165 164 159 157 154 154 149 142 139 134 125 99
211 244 279 255 242 40 196 192 212 297 326 9 349 323 349 300 336 316 18 51 241 44 41 204 218 146 154 149 149 151 165 172 157 152 153 154 153 152 146 140 138 138 122 90
182 208 313 186 232 239 181 182 204 282 296 331 329 293 358 343 357 14 25 301 95 69 241 226 202 159 155 150 149 145 146 151 151 152 155 157 154 149 138 128 124 122 107 98
222 175 238 224 249 244 299 226 234 270 308 313 300 294 284 319 342 259 11 154 231 206 224 224 172 163 161 156 153 152 150 152 154 157 157 157 155 150 139 122 115 121 115 104
223 221 252 259 353 283 296 297 277 254 314 271 245 15 6 253 195 177 220 162 220 243 215 194 162 157 163 162 162 160 157 155 153 154 155 159 163 160 144 131 127 124 116 115
222 244 243 262 269 255 272 274 273 236 289 200 141 208 227 290 246 238 179 201 225 240 192 168 165 160 167 168 168 167 164 161 161 158 158 154 156 156 155 148 142 138 133 121
Wind_Speed_850mb
66 69 74 80 83 82 73 32 8 38 40 7 7 5 18 23 15 9 11 6 4 3 3 2 11 18 24 35 14 18 14 8 6 9 5 12 15 18 15 10 8 5 8 10
63 65 68 75 80 72 69 25 11 25 48 7 8 15 16 11 18 15 5 6 7 4 6 3 3 13 23 19 22 17 13 4 3 11 11 8 7 4 10 12 8 9 11 10
59 58 61 68 75 68 43 17 9 17 16 17 14 16 11 14 19 11 6 8 7 4 2 3 6 8 3 31 20 37 21 6 12 12 9 6 6 9 5 14 9 11 10 5
55 54 55 61 71 68 40 22 7 13 9 13 22 18 8 21 15 13 4 7 14 6 2 3 5 4 11 9 11 9 14 10 5 9 8 10 7 7 5 8 12 12 15 15
52 50 50 52 63 68 40 15 13 17 18 30 22 15 8 22 16 10 9 8 7 17 6 2 7 4 11 8 13 7 5 7 7 5 3 6 12 13 12 9 9 12 15 4
51 47 47 45 50 58 24 34 23 11 16 15 12 11 19 27 31 19 22 22 17 7 17 7 12 13 9 7 2 2 7 13 7 3 5 6 9 6 6 11 11 9 11 11
50 49 42 41 40 43 42 34 18 10 8 14 10 22 39 32 32 17 24 20 4 14 8 18 7 4 4 9 5 15 11 10 7 6 6 2 7 22 36 27 16 11 25 18
44 45 43 39 35 36 40 18 11 8 8 25 24 35 33 47 39 15 11 9 11 13 4 4 7 9 9 7 10 5 8 11 8 9 6 6 6 8 12 10 11 15 29 32
43 42 41 38 33 34 36 11 20 13 14 6 34 25 22 13 19 17 13 20 24 9 4 4 7 6 7 6 6 11 8 12 10 5 10 9 8 1 44 15 6 7 29 36
42 43 40 33 32 29 36 19 13 15 12 24 24 13 12 18 9 7 16 21 12 14 4 4 5 5 4 9 8 9 5 9 11 7 7 5 7 4 2 7 15 26 35 26
42 39 36 34 33 30 36 30 8 15 11 45 17 30 44 33 11 6 19 13 3 3 4 3 4 4 6 4 2 8 8 10 4 7 8 3 5 3 6 21 38 55 51 58
40 37 34 32 34 32 31 32 19 17 26 45 45 16 18 29 19 20 15 6 8 7 4 5 3 4 6 10 7 3 6 8 11 5 3 9 5 36 59 61 66 52 69 59
38 37 36 35 32 30 29 32 17 24 17 40 14 14 31 24 12 24 9 9 21 18 13 6 5 6 6 7 7 8 6 4 10 9 12 26 48 65 76 71 69 60 55 50
39 42 39 35 33 29 22 19 11 19 14 8 17 32 21 16 21 34 36 45 43 41 20 9 2 4 2 2 6 8 3 9 15 19 18 48 37 62 72 67 62 56 46 38
42 41 36 33 27 17 9 6 6 12 8 8 26 30 12 20 32 35 43 51 43 14 6 1 5 4 9 4 5 5 5 20 11 10 41 35 36 62 65 65 57 48 45 42
42 39 32 27 20 12 7 8 15 15 18 8 7 18 18 28 30 27 38 30 19 7 3 4 8 7 10 7 6 15 8 13 48 28 41 65 65 58 50 53 48 41 36 28
38 27 22 17 16 10 11 7 11 17 14 6 9 13 12 28 20 10 19 13 16 17 10 11 5 16 12 6 6 15 33 48 67 77 88 54 57 53 48 45 42 35 32 26
27 20 16 13 13 11 6 4 12 10 6 8 5 7 18 21 12 12 20 19 16 21 13 9 8 11 9 8 10 37 57 69 63 46 49 63 61 54 49 39 33 28 26 22
19 19 15 9 6 8 8 20 15 7 7 5 4 3 6 20 10 11 12 11 7 13 7 7 7 7 6 19 39 46 60 43 56 64 64 61 57 52 44 33 25 23 25 18
17 14 6 4 6 22 13 3 3 3 5 7 6 6 6 13 8 6 8 8 3 5 5 9 7 3 6 40 57 65 44 63 68 67 49 57 54 48 38 22 18 19 20 18
5 3 5 8 11 7 4 5 4 6 5 10 9 9 4 7 4 4 8 2 3 5 8 6 5 4 3 35 53 48 66 64 51 31 44 41 40 44 36 29 21 19 16 14
11 9 10 5 4 3 1 5 6 3 4 7 3 3 4 6 7 5 7 3 4 1 3 7 2 3 20 45 52 59 60 56 41 39 50 45 40 36 30 25 22 19 16 15
1 3 4 4 5 6 6 7 3 4 9 12 15 5 5 3 3 2 3 3 5 1 6 3 7 14 37 53 55 52 50 50 48 48 45 42 40 34 24 27 22 21 17 17
6 5 7 7 6 7 6 5 6 5 7 18 17 7 3 5 6 1 2 1 4 3 1 8 6 39 56 60 58 56 57 57 53 48 44 42 39 34 26 20 18 16 17 17
6 6 7 9 8 4 3 4 4 4 13 15 8 6 2 3 2 1 1 2 5 9 8 6 33 57 67 65 63 61 60 53 49 45 41 36 31 28 25 17 16 16 19 19
9 11 6 11 3 3 3 10 11 6 10 6 3 2 2 5 5 3 9 7 9 7 6 13 59 62 69 72 64 60 55 46 41 37 30 27 24 22 22 22 20 21 20 20
7 9 20 26 20 15 15 12 11 11 9 5 4 3 9 2 3 5 7 8 6 9 11 50 69 67 65 64 62 58 53 45 42 36 30 26 23 24 25 27 26 22 18 14
Wind_Direction_850mb
356 357 357 357 3 351 359 4 26 17 347 46 30 318 309 306 328 336 250 226 292 291 307 107 170 193 211 185 128 156 189 152 225 195 203 189 165 172 151 128 199 140 159 259
356 357 359 360 5 1 351 351 328 20 26 20 358 332 319 298 15 327 348 318 287 3 348 70 43 210 221 179 160 153 175 242 345 355 359 10 64 141 119 119 95 179 136 249
356 357 1 1 6 8 1 6 352 357 17 348 338 342 327 324 299 268 211 272 275 296 280 103 352 329 336 197 182 179 132 129 157 185 200 153 17 23 158 122 113 166 200 178
356 357 2 5 5 12 17 22 8 4 317 335 329 323 286 333 350 347 242 283 240 219 257 145 204 331 334 74 114 91 131 157 108 69 121 123 109 70 301 126 147 157 197 187
356 357 2 8 6 9 27 24 355 334 307 298 334 342 332 326 332 299 297 213 294 252 251 8 166 359 16 47 340 93 359 132 107 67 137 130 95 21 61 56 144 83 84 92
354 354 0 6 9 11 9 3 340 316 310 318 342 336 326 312 317 297 260 279 272 220 231 246 130 102 163 195 87 44 108 129 106 117 292 133 59 151 48 54 22 122 152 203
352 353 353 1 6 9 2 351 333 333 307 323 315 303 327 316 316 290 281 291 313 0 142 125 50 19 281 274 261 190 138 102 91 132 35 104 231 118 104 93 29 6 100 115
350 351 351 353 358 3 1 354 355 315 292 303 298 329 324 325 337 337 318 325 345 314 174 119 79 349 19 322 37 123 230 110 90 125 121 300 54 186 135 136 16 10 116 111
346 346 347 347 353 356 356 0 348 322 301 246 315 324 302 326 346 340 314 330 9 27 107 179 130 158 132 266 6 40 84 77 108 128 111 179 250 10 125 101 61 37 124 127
341 342 342 345 346 352 339 346 320 322 277 291 313 290 302 315 313 286 285 330 340 27 43 89 124 160 182 161 192 183 50 44 120 100 112 292 179 350 350 112 195 152 141 130
338 338 339 339 338 343 334 339 329 331 270 292 289 303 300 303 270 299 293 312 346 291 87 115 164 152 157 94 236 191 140 116 112 78 102 166 134 50 181 141 119 131 128 126
339 338 338 334 335 336 330 327 343 303 271 279 303 310 329 326 303 311 300 299 294 310 343 194 251 169 134 146 184 300 100 170 134 95 211 328 89 121 121 130 126 124 130 131
334 334 330 329 331 329 319 313 328 345 296 314 306 309 334 324 328 330 300 326 344 306 306 284 258 116 137 145 221 136 86 107 96 88 0 73 93 109 124 132 129 133 131 133
329 328 324 326 328 321 311 309 315 334 314 284 290 326 353 340 331 322 301 296 306 305 277 239 241 102 76 99 139 100 45 62 113 90 101 85 85 117 126 125 128 127 122 120
326 327 321 326 328 325 314 256 163 14 326 279 291 332 344 3 342 325 328 312 296 284 277 284 118 60 45 30 87 49 346 150 132 177 168 127 142 136 135 131 130 127 124 117
321 322 316 322 317 320 231 251 258 314 326 292 299 319 317 348 351 335 346 350 337 310 352 331 63 78 148 74 63 336 92 165 141 134 140 134 140 141 137 125 124 121 112 102
319 316 312 316 312 285 254 256 297 307 304 283 293 311 314 344 346 329 348 339 341 347 14 33 32 26 49 59 57 4 102 122 129 135 130 118 136 129 130 126 124 118 107 100
315 309 298 290 291 290 265 291 310 336 308 275 296 290 320 356 340 333 353 346 356 19 357 21 28 20 40 71 78 105 111 114 119 132 139 135 135 134 130 129 131 119 108 100
303 311 291 283 272 264 283 305 298 266 245 293 256 277 289 345 353 334 338 351 29 350 34 11 22 340 42 145 139 136 134 132 127 127 129 138 138 138 137 139 139 125 117 103
303 303 266 225 239 291 288 272 249 228 225 230 253 248 276 332 346 332 350 9 45 37 306 346 60 344 46 154 153 144 145 142 142 133 132 142 142 143 145 144 132 125 121 106
329 290 249 286 285 279 251 252 214 202 251 213 238 226 271 344 350 302 27 218 4 52 291 89 1 360 1 157 152 158 158 159 160 155 158 159 156 154 151 146 137 126 116 97
329 308 313 334 275 257 356 267 304 251 265 318 269 329 309 323 325 11 348 35 30 10 314 70 39 239 142 158 154 159 163 165 165 164 159 157 154 154 149 142 139 134 125 99
211 244 279 255 242 40 196 192 212 297 326 9 349 323 349 300 336 316 18 51 241 44 41 204 218 146 154 149 149 151 165 172 157 152 153 154 153 152 146 140 138 138 122 90
182 208 313 186 232 239 181 182 204 282 296 331 329 293 358 343 357 14 25 301 95 69 241 226 202 159 155 150 149 145 146 151 151 152 155 157 154 149 138 128 124 122 107 98
222 175 238 224 249 244 299 226 234 270 308 313 300 294 284 319 342 259 11 154 231 206 224 224 172 163 161 156 153 152 150 152 154 157 157 157 155 150 139 122 115 121 115 104
223 221 252 259 353 283 296 297 277 254 314 271 245 15 6 253 195 177 220 162 220 243 215 194 162 157 163 162 162 160 157 155 153 154 155 159 163 160 144 131 127 124 116 115
222 244 243 262 269 255 272 274 273 236 289 200 141 208 227 290 246 238 179 201 225 240 192 168 165 160 167 168 168 167 164 161 161 158 158 154 156 156 155 148 142 138 133 121